N501CW KCOS-KBHM

Flight info

Callsign N501CW
Flight time 2h 9m
Altitude 45000
Route BRK JEWLS LAA PER TUL VUZ KIOSK
Aircraft C700/M-SBDGHM1RWXY/LB2

Departure

Time 2026-04-28 02:14
Airport City of Colorado Springs Municipal Airport (KCOS)

Arrival

Time 2026-04-28 04:23
Airport Birmingham-Shuttlesworth International Airport (KBHM)
Time Latitude Longitude Altitude Speed Heading
2026-04-28 01:53 38.81091 -104.72031 6187 ft 0 kts 268°
2026-04-28 02:07 38.81089 -104.72039 6189 ft 4 kts 254°
2026-04-28 02:08 38.81072 -104.72037 6188 ft 4 kts 127°
2026-04-28 02:08 38.81008 -104.71965 6188 ft 21 kts 161°
2026-04-28 02:08 38.80850 -104.71953 6188 ft 24 kts 182°
2026-04-28 02:08 38.80678 -104.71955 6187 ft 26 kts 181°
2026-04-28 02:09 38.80486 -104.71959 6187 ft 30 kts 181°
2026-04-28 02:09 38.80367 -104.71899 6188 ft 15 kts 97°
2026-04-28 02:09 38.80347 -104.71749 6187 ft 20 kts 127°
2026-04-28 02:09 38.80195 -104.71731 6187 ft 25 kts 178°
2026-04-28 02:10 38.80002 -104.71728 6187 ft 30 kts 180°
2026-04-28 02:10 38.79778 -104.71735 6186 ft 34 kts 180°
2026-04-28 02:10 38.79552 -104.71736 6188 ft 31 kts 180°
2026-04-28 02:10 38.79413 -104.71724 6187 ft 0 kts 123°
2026-04-28 02:13 38.79412 -104.71720 6187 ft 4 kts 122°
2026-04-28 02:13 38.79417 -104.71616 6187 ft 17 kts 31°
2026-04-28 02:13 38.79636 -104.71596 6185 ft 65 kts
2026-04-28 02:13 38.80347 -104.71595 6183 ft 138 kts 360°
2026-04-28 02:14 38.81517 -104.71600 6288 ft 192 kts 359°
2026-04-28 02:14 38.82952 -104.71621 7072 ft 215 kts
2026-04-28 02:14 38.84434 -104.71200 8289 ft 223 kts 18°
2026-04-28 02:14 38.85945 -104.70519 9292 ft 240 kts 27°
2026-04-28 02:15 38.88618 -104.67565 10838 ft 280 kts 76°
2026-04-28 02:15 38.88644 -104.65044 11628 ft 294 kts 110°
2026-04-28 02:15 38.87626 -104.62697 12390 ft 312 kts 131°
2026-04-28 02:16 38.86234 -104.60511 13583 ft 320 kts 133°
2026-04-28 02:16 38.84898 -104.58158 14696 ft 332 kts 127°
2026-04-28 02:16 38.83783 -104.55493 15769 ft 344 kts 121°
2026-04-28 02:16 38.82756 -104.52674 16790 ft 353 kts 120°
2026-04-28 02:17 38.81626 -104.49842 17811 ft 360 kts 124°
2026-04-28 02:17 38.80389 -104.47058 18734 ft 368 kts 125°
2026-04-28 02:17 38.79133 -104.44164 19627 ft 375 kts 123°
2026-04-28 02:17 38.77905 -104.41172 20473 ft 383 kts 122°
2026-04-28 02:18 38.76648 -104.38125 21310 ft 390 kts 123°
2026-04-28 02:18 38.75340 -104.35050 22137 ft 397 kts 123°
2026-04-28 02:18 38.74003 -104.31916 22953 ft 404 kts 123°
2026-04-28 02:18 38.72656 -104.28714 23706 ft 411 kts 123°
2026-04-28 02:19 38.71294 -104.25469 24392 ft 417 kts 123°
2026-04-28 02:19 38.69904 -104.22186 25088 ft 422 kts 123°
2026-04-28 02:19 38.68495 -104.18873 25773 ft 427 kts 123°
2026-04-28 02:19 38.67067 -104.15506 26443 ft 432 kts 123°
2026-04-28 02:20 38.65625 -104.12103 27113 ft 438 kts 123°
2026-04-28 02:20 38.64159 -104.08649 27747 ft 443 kts 124°
2026-04-28 02:20 38.62675 -104.05165 28377 ft 449 kts 124°
2026-04-28 02:20 38.61171 -104.01637 28986 ft 455 kts 124°
2026-04-28 02:21 38.59649 -103.98065 29575 ft 460 kts 124°
2026-04-28 02:21 38.58108 -103.94455 30091 ft 466 kts 124°
2026-04-28 02:21 38.56541 -103.90786 30494 ft 473 kts 125°
2026-04-28 02:21 38.54977 -103.87133 30884 ft 478 kts 125°
2026-04-28 02:22 38.53385 -103.83301 31272 ft 487 kts 121°
2026-04-28 02:22 38.52158 -103.79275 31627 ft 497 kts 115°
2026-04-28 02:22 38.50978 -103.75096 31990 ft 502 kts 116°
2026-04-28 02:22 38.49758 -103.70909 32324 ft 506 kts 117°
2026-04-28 02:23 38.48522 -103.66688 32657 ft 510 kts 117°
2026-04-28 02:23 38.47291 -103.62409 33011 ft 513 kts 116°
2026-04-28 02:23 38.46064 -103.58126 33465 ft 513 kts 117°
2026-04-28 02:23 38.44824 -103.53856 33891 ft 514 kts 117°
2026-04-28 02:24 38.43571 -103.49580 34283 ft 513 kts 117°
2026-04-28 02:24 38.42331 -103.45321 34700 ft 512 kts 117°
2026-04-28 02:24 38.41113 -103.41120 35103 ft 511 kts 117°
2026-04-28 02:24 38.39877 -103.36884 35509 ft 509 kts 117°
2026-04-28 02:25 38.38637 -103.32657 35914 ft 508 kts 117°
2026-04-28 02:25 38.37400 -103.28440 36313 ft 506 kts 117°
2026-04-28 02:25 38.36168 -103.24234 36707 ft 505 kts 117°
2026-04-28 02:25 38.34939 -103.20045 37075 ft 504 kts 117°
2026-04-28 02:26 38.33709 -103.15871 37455 ft 503 kts 117°
2026-04-28 02:26 38.32481 -103.11708 37822 ft 502 kts 117°
2026-04-28 02:26 38.31255 -103.07553 38174 ft 501 kts 117°
2026-04-28 02:26 38.30029 -103.03408 38509 ft 500 kts 117°
2026-04-28 02:27 38.28801 -102.99261 38777 ft 499 kts 117°
2026-04-28 02:27 38.27575 -102.95127 39003 ft 499 kts 117°
2026-04-28 02:27 38.26345 -102.90989 39230 ft 499 kts 117°
2026-04-28 02:27 38.25131 -102.86906 39449 ft 500 kts 117°
2026-04-28 02:28 38.23899 -102.82771 39669 ft 500 kts 117°
2026-04-28 02:28 38.22665 -102.78634 39881 ft 500 kts 117°
2026-04-28 02:28 38.21429 -102.74499 40094 ft 499 kts 117°
2026-04-28 02:28 38.20193 -102.70367 40311 ft 499 kts 117°
2026-04-28 02:29 38.19087 -102.66165 40529 ft 503 kts 112°
2026-04-28 02:29 38.18099 -102.61882 40735 ft 503 kts 112°
2026-04-28 02:29 38.17106 -102.57619 40948 ft 502 kts 112°
2026-04-28 02:29 38.16437 -102.54804 41084 ft 502 kts 113°
2026-04-28 02:30 38.15426 -102.50563 41291 ft 501 kts 113°
2026-04-28 02:30 38.14425 -102.46325 41478 ft 501 kts 112°
2026-04-28 02:30 38.13426 -102.42079 41661 ft 501 kts 112°
2026-04-28 02:30 38.12094 -102.36464 41888 ft 501 kts 113°
2026-04-28 02:31 38.11084 -102.32233 42066 ft 501 kts 113°
2026-04-28 02:31 38.10401 -102.29365 42173 ft 501 kts 113°
2026-04-28 02:31 38.09393 -102.25128 42342 ft 501 kts 113°
2026-04-28 02:31 38.08395 -102.20946 42502 ft 501 kts 113°
2026-04-28 02:32 38.07378 -102.16701 42662 ft 501 kts 113°
2026-04-28 02:32 38.06363 -102.12469 42812 ft 502 kts 113°
2026-04-28 02:32 38.05347 -102.08238 42956 ft 502 kts 113°
2026-04-28 02:32 38.04327 -102.03996 43101 ft 502 kts 113°
2026-04-28 02:33 38.03304 -101.99754 43238 ft 502 kts 113°
2026-04-28 02:33 38.02281 -101.95517 43372 ft 502 kts 114°
2026-04-28 02:33 38.01257 -101.91282 43507 ft 503 kts 114°
2026-04-28 02:33 38.00231 -101.87047 43624 ft 503 kts 114°
2026-04-28 02:34 37.99201 -101.82801 43745 ft 503 kts 114°
2026-04-28 02:34 37.98169 -101.78558 43868 ft 503 kts 114°
2026-04-28 02:34 37.97137 -101.74323 43990 ft 503 kts 114°
2026-04-28 02:34 37.96102 -101.70080 44103 ft 504 kts 114°
2026-04-28 02:35 37.95063 -101.65828 44224 ft 504 kts 114°
2026-04-28 02:35 37.94037 -101.61636 44338 ft 504 kts 114°
2026-04-28 02:35 37.92985 -101.57346 44458 ft 503 kts 114°
2026-04-28 02:35 37.91959 -101.53172 44564 ft 503 kts 114°
2026-04-28 02:36 37.90916 -101.48934 44672 ft 503 kts 114°
2026-04-28 02:36 37.88829 -101.40479 44869 ft 503 kts 114°
2026-04-28 02:37 37.86725 -101.31987 44917 ft 507 kts 114°
2026-04-28 02:37 37.84601 -101.23438 44914 ft 511 kts 114°
2026-04-28 02:38 37.82456 -101.14834 44916 ft 515 kts 114°
2026-04-28 02:38 37.80285 -101.06161 44926 ft 519 kts 114°
2026-04-28 02:39 37.78086 -100.97402 44946 ft 524 kts 114°
2026-04-28 02:39 37.75866 -100.88595 44968 ft 528 kts 114°
2026-04-28 02:40 37.73624 -100.79728 44977 ft 531 kts 114°
2026-04-28 02:40 37.71373 -100.70859 44974 ft 535 kts 114°
2026-04-28 02:41 37.69088 -100.61889 44965 ft 539 kts 114°
2026-04-28 02:41 37.66777 -100.52849 44948 ft 541 kts 114°
2026-04-28 02:42 37.64452 -100.43785 44938 ft 543 kts 114°
2026-04-28 02:42 37.62113 -100.34701 44946 ft 545 kts 114°
2026-04-28 02:43 37.59761 -100.25600 44964 ft 546 kts 114°
2026-04-28 02:43 37.57402 -100.16505 44962 ft 546 kts 114°
2026-04-28 02:44 37.55052 -100.07474 44972 ft 546 kts 114°
2026-04-28 02:44 37.52679 -99.98391 44961 ft 545 kts 115°
2026-04-28 02:45 37.50301 -99.89321 44949 ft 545 kts 115°
2026-04-28 02:45 37.47917 -99.80255 44937 ft 545 kts 115°
2026-04-28 02:46 37.45525 -99.71196 44922 ft 545 kts 115°
2026-04-28 02:46 37.43123 -99.62130 44919 ft 545 kts 115°
2026-04-28 02:47 37.40719 -99.53090 44915 ft 545 kts 115°
2026-04-28 02:47 37.38321 -99.44100 44915 ft 546 kts 115°
2026-04-28 02:48 37.35899 -99.35055 44924 ft 546 kts 115°
2026-04-28 02:48 37.33470 -99.26012 44918 ft 546 kts 115°
2026-04-28 02:49 37.31122 -99.17303 44919 ft 546 kts 115°
2026-04-28 02:49 37.28673 -99.08251 44918 ft 546 kts 115°
2026-04-28 02:50 37.26220 -98.99216 44915 ft 546 kts 115°
2026-04-28 02:50 37.23764 -98.90197 44921 ft 546 kts 115°
2026-04-28 02:51 37.21300 -98.81180 44922 ft 546 kts 115°
2026-04-28 02:51 37.18831 -98.72179 44915 ft 545 kts 115°
2026-04-28 02:52 37.16357 -98.63188 44922 ft 544 kts 115°
2026-04-28 02:52 37.13898 -98.54284 44910 ft 544 kts 115°
2026-04-28 02:53 37.11415 -98.45322 44927 ft 544 kts 115°
2026-04-28 02:53 37.08928 -98.36375 44932 ft 544 kts 115°
2026-04-28 02:54 37.06427 -98.27409 44941 ft 544 kts 115°
2026-04-28 02:54 37.03921 -98.18455 44948 ft 544 kts 115°
2026-04-28 02:55 37.01410 -98.09513 44946 ft 545 kts 115°
2026-04-28 02:55 36.98892 -98.00573 44945 ft 545 kts 115°
2026-04-28 02:56 36.96364 -97.91631 44918 ft 546 kts 115°
2026-04-28 02:56 36.93841 -97.82735 44906 ft 545 kts 115°
2026-04-28 02:57 36.91294 -97.73784 44881 ft 546 kts 115°
2026-04-28 02:57 36.88743 -97.64846 44906 ft 547 kts 115°
2026-04-28 02:58 36.86182 -97.55906 44926 ft 546 kts 115°
2026-04-28 02:58 36.83631 -97.47030 44948 ft 546 kts 115°
2026-04-28 02:59 36.81058 -97.38105 44962 ft 546 kts 115°
2026-04-28 02:59 36.78482 -97.29197 44966 ft 545 kts 115°
2026-04-28 03:00 36.75900 -97.20301 44930 ft 545 kts 115°
2026-04-28 03:00 36.72943 -97.11656 44934 ft 538 kts 123°
2026-04-28 03:01 36.69644 -97.03290 44964 ft 538 kts 122°
2026-04-28 03:01 36.66376 -96.94985 44945 ft 537 kts 123°
2026-04-28 03:02 36.63070 -96.86654 44920 ft 536 kts 122°
2026-04-28 03:02 36.59769 -96.78309 44903 ft 535 kts 123°
2026-04-28 03:03 36.56458 -96.70002 44880 ft 535 kts 122°
2026-04-28 03:03 36.53176 -96.61760 44883 ft 534 kts 122°
2026-04-28 03:04 36.49863 -96.53481 44878 ft 534 kts 123°
2026-04-28 03:04 36.46556 -96.45224 44882 ft 533 kts 123°
2026-04-28 03:05 36.43243 -96.36981 44884 ft 532 kts 123°
2026-04-28 03:05 36.39931 -96.28760 44881 ft 532 kts 123°
2026-04-28 03:06 36.36637 -96.20604 44899 ft 532 kts 123°
2026-04-28 03:06 36.33312 -96.12394 44914 ft 532 kts 123°
2026-04-28 03:07 36.29982 -96.04190 44927 ft 533 kts 123°
2026-04-28 03:07 36.26644 -95.95988 44934 ft 532 kts 123°
2026-04-28 03:08 36.23296 -95.87782 44937 ft 533 kts 123°
2026-04-28 03:08 36.20001 -95.79554 44943 ft 536 kts 117°
2026-04-28 03:09 36.17784 -95.70707 44934 ft 542 kts 110°
2026-04-28 03:09 36.15726 -95.61733 44925 ft 542 kts 110°
2026-04-28 03:10 36.13672 -95.52778 44922 ft 541 kts 110°
2026-04-28 03:10 36.11609 -95.43816 44913 ft 540 kts 110°
2026-04-28 03:11 36.09541 -95.34886 44908 ft 540 kts 110°
2026-04-28 03:11 36.07474 -95.25969 44895 ft 539 kts 110°
2026-04-28 03:12 36.05398 -95.17066 44879 ft 538 kts 110°
2026-04-28 03:12 36.03323 -95.08185 44875 ft 537 kts 110°
2026-04-28 03:13 36.01243 -94.99325 44878 ft 536 kts 110°
2026-04-28 03:13 35.99173 -94.90536 44886 ft 536 kts 110°
2026-04-28 03:14 35.97088 -94.81716 44885 ft 535 kts 110°
2026-04-28 03:14 35.94999 -94.72912 44895 ft 534 kts 110°
2026-04-28 03:15 35.92904 -94.64114 44900 ft 534 kts 110°
2026-04-28 03:15 35.90806 -94.55334 44895 ft 533 kts 111°
2026-04-28 03:16 35.88701 -94.46562 44889 ft 533 kts 111°
2026-04-28 03:16 35.86946 -94.39263 44902 ft 533 kts 111°
2026-04-28 03:17 35.84827 -94.30487 44909 ft 534 kts 111°
2026-04-28 03:17 35.81638 -94.17335 44906 ft 534 kts 111°
2026-04-28 03:18 35.79507 -94.08582 44891 ft 533 kts 111°
2026-04-28 03:18 35.77370 -93.99839 44878 ft 533 kts 111°
2026-04-28 03:19 35.75223 -93.91084 44860 ft 533 kts 111°
2026-04-28 03:19 35.73077 -93.82363 44842 ft 532 kts 111°
2026-04-28 03:20 35.70942 -93.73720 44853 ft 531 kts 111°
2026-04-28 03:20 35.68786 -93.65019 44847 ft 531 kts 111°
2026-04-28 03:21 35.66623 -93.56319 44847 ft 531 kts 111°
2026-04-28 03:21 35.64453 -93.47625 44838 ft 531 kts 111°
2026-04-28 03:22 35.62280 -93.38942 44834 ft 530 kts 111°
2026-04-28 03:22 35.60115 -93.30326 44833 ft 530 kts 111°
2026-04-28 03:23 35.57934 -93.21673 44844 ft 529 kts 111°
2026-04-28 03:23 35.55749 -93.13034 44852 ft 529 kts 111°
2026-04-28 03:24 35.53560 -93.04406 44853 ft 529 kts 111°
2026-04-28 03:24 35.51366 -92.95792 44855 ft 529 kts 111°
2026-04-28 03:25 35.49178 -92.87227 44858 ft 529 kts 111°
2026-04-28 03:25 35.46973 -92.78624 44862 ft 530 kts 111°
2026-04-28 03:26 35.44755 -92.70001 44869 ft 530 kts 111°
2026-04-28 03:26 35.42528 -92.61366 44873 ft 531 kts 111°
2026-04-28 03:27 35.40294 -92.52739 44874 ft 531 kts 111°
2026-04-28 03:27 35.38048 -92.44088 44875 ft 531 kts 111°
2026-04-28 03:28 35.35814 -92.35520 44875 ft 532 kts 111°
2026-04-28 03:28 35.33561 -92.26900 44874 ft 532 kts 111°
2026-04-28 03:29 35.31294 -92.18258 44868 ft 532 kts 111°
2026-04-28 03:29 35.29027 -92.09644 44872 ft 532 kts 111°
2026-04-28 03:30 35.26749 -92.01015 44883 ft 532 kts 111°
2026-04-28 03:30 35.24466 -91.92394 44887 ft 532 kts 111°
2026-04-28 03:31 35.22195 -91.83849 44890 ft 532 kts 111°
2026-04-28 03:31 35.19896 -91.75224 44888 ft 532 kts 111°
2026-04-28 03:32 35.17594 -91.66617 44890 ft 532 kts 111°
2026-04-28 03:32 35.15283 -91.58004 44892 ft 532 kts 111°
2026-04-28 03:33 35.12973 -91.49420 44890 ft 532 kts 111°
2026-04-28 03:33 35.10669 -91.40888 44894 ft 532 kts 111°
2026-04-28 03:34 35.08345 -91.32306 44893 ft 531 kts 111°
2026-04-28 03:34 35.06016 -91.23736 44895 ft 531 kts 111°
2026-04-28 03:35 35.03686 -91.15190 44897 ft 531 kts 111°
2026-04-28 03:35 35.01351 -91.06650 44901 ft 530 kts 111°
2026-04-28 03:36 34.99022 -90.98158 44895 ft 530 kts 111°
2026-04-28 03:36 34.96677 -90.89635 44896 ft 529 kts 111°
2026-04-28 03:37 34.94629 -90.82214 44895 ft 529 kts 111°
2026-04-28 03:37 34.92280 -90.73725 44895 ft 529 kts 111°
2026-04-28 03:38 34.89921 -90.65228 44896 ft 529 kts 111°
2026-04-28 03:38 34.87558 -90.56743 44901 ft 528 kts 111°
2026-04-28 03:39 34.85205 -90.48320 44905 ft 528 kts 111°
2026-04-28 03:39 34.82833 -90.39853 44914 ft 528 kts 111°
2026-04-28 03:40 34.80455 -90.31390 44919 ft 529 kts 111°
2026-04-28 03:40 34.78066 -90.22917 44919 ft 529 kts 111°
2026-04-28 03:41 34.75672 -90.14448 44927 ft 530 kts 111°
2026-04-28 03:41 34.73269 -90.05975 44931 ft 530 kts 111°
2026-04-28 03:42 34.70854 -89.97486 44927 ft 531 kts 111°
2026-04-28 03:42 34.68433 -89.88998 44934 ft 531 kts 111°
2026-04-28 03:43 34.66019 -89.80565 44947 ft 532 kts 111°
2026-04-28 03:43 34.63577 -89.72056 44965 ft 532 kts 111°
2026-04-28 03:44 34.61133 -89.63566 44975 ft 533 kts 111°
2026-04-28 03:44 34.58677 -89.55061 44981 ft 534 kts 110°
2026-04-28 03:45 34.56227 -89.46600 44979 ft 534 kts 110°
2026-04-28 03:45 34.53756 -89.38093 44986 ft 534 kts 110°
2026-04-28 03:46 34.51283 -89.29605 44980 ft 534 kts 110°
2026-04-28 03:46 34.48804 -89.21122 44972 ft 534 kts 110°
2026-04-28 03:47 34.46320 -89.12647 44228 ft 528 kts 110°
2026-04-28 03:47 34.45104 -89.08505 43549 ft 516 kts 110°
2026-04-28 03:47 34.43911 -89.04446 42880 ft 507 kts 110°
2026-04-28 03:48 34.42731 -89.00445 42220 ft 505 kts 111°
2026-04-28 03:48 34.41541 -88.96413 41568 ft 509 kts 111°
2026-04-28 03:48 34.40348 -88.92375 40896 ft 509 kts 111°
2026-04-28 03:48 34.39170 -88.88388 40238 ft 509 kts 111°
2026-04-28 03:49 34.37975 -88.84353 39573 ft 509 kts 111°
2026-04-28 03:49 34.36778 -88.80320 38909 ft 508 kts 111°
2026-04-28 03:49 34.35583 -88.76297 38186 ft 506 kts 111°
2026-04-28 03:49 34.34394 -88.72298 37517 ft 505 kts 110°
2026-04-28 03:50 34.33203 -88.68298 36856 ft 504 kts 111°
2026-04-28 03:50 34.32016 -88.64319 36191 ft 502 kts 111°
2026-04-28 03:50 34.30829 -88.60344 35536 ft 500 kts 111°
2026-04-28 03:50 34.29649 -88.56397 34881 ft 499 kts 111°
2026-04-28 03:51 34.28468 -88.52454 34212 ft 497 kts 111°
2026-04-28 03:51 34.27308 -88.48586 33526 ft 495 kts 111°
2026-04-28 03:51 34.26133 -88.44673 32869 ft 496 kts 111°
2026-04-28 03:51 34.24949 -88.40737 32209 ft 497 kts 111°
2026-04-28 03:52 34.23767 -88.36810 31555 ft 498 kts 111°
2026-04-28 03:52 34.22581 -88.32874 30899 ft 499 kts 111°
2026-04-28 03:52 34.21388 -88.28922 30240 ft 501 kts 111°
2026-04-28 03:52 34.20191 -88.24963 29535 ft 500 kts 111°
2026-04-28 03:53 34.19002 -88.21034 28876 ft 499 kts 111°
2026-04-28 03:53 34.17809 -88.17098 28221 ft 495 kts 111°
2026-04-28 03:53 34.16629 -88.13210 27574 ft 491 kts 111°
2026-04-28 03:53 34.15471 -88.09401 26935 ft 488 kts 111°
2026-04-28 03:54 34.14306 -88.05573 26291 ft 484 kts 111°
2026-04-28 03:54 34.13148 -88.01769 25655 ft 480 kts 111°
2026-04-28 03:54 34.11998 -87.98000 25029 ft 477 kts 111°
2026-04-28 03:54 34.10855 -87.94262 24405 ft 473 kts 111°
2026-04-28 03:55 34.09720 -87.90547 23782 ft 469 kts 111°
2026-04-28 03:55 34.08596 -87.86876 23124 ft 464 kts 111°
2026-04-28 03:55 34.07480 -87.83238 22502 ft 459 kts 111°
2026-04-28 03:55 34.06375 -87.79640 21901 ft 455 kts 111°
2026-04-28 03:56 34.05281 -87.76078 21310 ft 451 kts 111°
2026-04-28 03:56 34.04196 -87.72554 20715 ft 447 kts 111°
2026-04-28 03:56 34.03131 -87.69097 20139 ft 443 kts 111°
2026-04-28 03:56 34.02059 -87.65622 19572 ft 440 kts 111°
2026-04-28 03:57 34.00998 -87.62185 19007 ft 436 kts 111°
2026-04-28 03:57 33.99946 -87.58780 18449 ft 432 kts 111°
2026-04-28 03:57 33.98899 -87.55398 17850 ft 428 kts 111°
2026-04-28 03:57 33.97863 -87.52056 17297 ft 424 kts 111°
2026-04-28 03:58 33.96832 -87.48733 16641 ft 420 kts 111°
2026-04-28 03:58 33.95816 -87.45457 16091 ft 416 kts 111°
2026-04-28 03:58 33.94802 -87.42196 15559 ft 413 kts 111°
2026-04-28 03:58 33.93799 -87.38974 15022 ft 410 kts 111°
2026-04-28 03:59 33.92801 -87.35772 14475 ft 407 kts 111°
2026-04-28 03:59 33.91811 -87.32599 13949 ft 399 kts 111°
2026-04-28 03:59 33.90867 -87.29570 13401 ft 375 kts 111°
2026-04-28 03:59 33.89985 -87.26745 12931 ft 355 kts 112°
2026-04-28 04:00 33.89138 -87.24037 12472 ft 337 kts 112°
2026-04-28 04:00 33.88326 -87.21447 12038 ft 326 kts 112°
2026-04-28 04:00 33.87528 -87.18903 11606 ft 324 kts 112°
2026-04-28 04:00 33.86735 -87.16372 11171 ft 322 kts 112°
2026-04-28 04:01 33.85946 -87.13855 10743 ft 321 kts 113°
2026-04-28 04:01 33.85158 -87.11348 10315 ft 318 kts 113°
2026-04-28 04:01 33.84379 -87.08868 9888 ft 315 kts 114°
2026-04-28 04:01 33.83604 -87.06409 9445 ft 312 kts 114°
2026-04-28 04:02 33.82837 -87.03974 9019 ft 310 kts 114°
2026-04-28 04:02 33.82303 -87.01461 8596 ft 314 kts 95°
2026-04-28 04:02 33.82639 -86.98883 8220 ft 314 kts 68°
2026-04-28 04:02 33.83851 -86.96732 7861 ft 312 kts 41°
2026-04-28 04:03 33.85681 -86.95424 7531 ft 303 kts 13°
2026-04-28 04:03 33.87712 -86.94983 6979 ft 294 kts
2026-04-28 04:03 33.89748 -86.94824 6286 ft 292 kts 357°
2026-04-28 04:03 33.91759 -86.94728 5501 ft 295 kts 357°
2026-04-28 04:04 33.93822 -86.94672 4731 ft 298 kts 357°
2026-04-28 04:04 33.95856 -86.94133 3974 ft 302 kts 30°
2026-04-28 04:04 33.97285 -86.92455 3910 ft 285 kts 66°
2026-04-28 04:04 33.97751 -86.90184 3911 ft 275 kts 99°
2026-04-28 04:05 33.97257 -86.88036 3924 ft 264 kts 123°
2026-04-28 04:05 33.96188 -86.86324 3925 ft 251 kts 145°
2026-04-28 04:05 33.94732 -86.85244 3923 ft 244 kts 161°
2026-04-28 04:05 33.93214 -86.84430 3495 ft 236 kts 160°
2026-04-28 04:06 33.92259 -86.83872 3430 ft 227 kts 158°
2026-04-28 04:06 33.90843 -86.82943 3428 ft 238 kts 155°
2026-04-28 04:06 33.89408 -86.81959 3401 ft 237 kts 153°
2026-04-28 04:06 33.87952 -86.80969 3438 ft 244 kts 156°
2026-04-28 04:07 33.86476 -86.79988 3447 ft 243 kts 156°
2026-04-28 04:07 33.84993 -86.79001 3449 ft 243 kts 156°
2026-04-28 04:07 33.83517 -86.78011 3454 ft 243 kts 156°
2026-04-28 04:07 33.82028 -86.77041 3455 ft 242 kts 160°
2026-04-28 04:08 33.80492 -86.76280 3450 ft 233 kts 156°
2026-04-28 04:08 33.79215 -86.75414 3443 ft 196 kts 162°
2026-04-28 04:08 33.77923 -86.74927 3447 ft 191 kts 172°
2026-04-28 04:08 33.76618 -86.74756 3452 ft 187 kts 181°
2026-04-28 04:09 33.75342 -86.74736 3462 ft 184 kts 181°
2026-04-28 04:09 33.74065 -86.74709 3460 ft 186 kts 181°
2026-04-28 04:09 33.72788 -86.74706 3470 ft 184 kts 182°
2026-04-28 04:09 33.71492 -86.74710 3460 ft 188 kts 182°
2026-04-28 04:10 33.70191 -86.74713 3220 ft 185 kts 181°
2026-04-28 04:10 33.68913 -86.74714 2999 ft 173 kts 180°
2026-04-28 04:10 33.67840 -86.74714 2892 ft 142 kts 180°
2026-04-28 04:10 33.66851 -86.74713 2881 ft 141 kts 180°
2026-04-28 04:11 33.65884 -86.74713 2876 ft 135 kts 179°
2026-04-28 04:11 33.64976 -86.74697 2515 ft 128 kts 177°
2026-04-28 04:11 33.64112 -86.74677 2074 ft 122 kts 176°
2026-04-28 04:11 33.63287 -86.74709 1767 ft 114 kts 178°
2026-04-28 04:12 33.62499 -86.74788 1380 ft 115 kts 176°
2026-04-28 04:12 33.61626 -86.74723 1510 ft 156 kts 172°
2026-04-28 04:12 33.60705 -86.74528 2113 ft 181 kts 159°
2026-04-28 04:12 33.59956 -86.73656 2939 ft 142 kts 122°
2026-04-28 04:13 33.59818 -86.72378 3448 ft 169 kts 97°
2026-04-28 04:13 33.59919 -86.70797 3615 ft 221 kts 90°
2026-04-28 04:13 33.60196 -86.68835 4072 ft 264 kts 86°
2026-04-28 04:13 33.60503 -86.66610 4013 ft 268 kts 86°
2026-04-28 04:14 33.60804 -86.64370 4010 ft 279 kts 86°
2026-04-28 04:14 33.61136 -86.62085 3995 ft 280 kts 79°
2026-04-28 04:14 33.62073 -86.60017 3986 ft 290 kts 50°
2026-04-28 04:14 33.63741 -86.58649 3991 ft 295 kts 21°
2026-04-28 04:15 33.65742 -86.58211 3989 ft 292 kts
2026-04-28 04:15 33.67775 -86.58162 3993 ft 293 kts 358°
2026-04-28 04:15 33.71850 -86.58234 3981 ft 291 kts 357°
2026-04-28 04:16 33.73885 -86.58464 3969 ft 294 kts 342°
2026-04-28 04:16 33.75618 -86.59493 3960 ft 267 kts 315°
2026-04-28 04:16 33.76726 -86.61127 3945 ft 239 kts 289°
2026-04-28 04:16 33.77127 -86.62992 3559 ft 224 kts 270°
2026-04-28 04:17 33.77265 -86.64828 3043 ft 220 kts 267°
2026-04-28 04:17 33.77385 -86.66606 2958 ft 212 kts 267°
2026-04-28 04:17 33.77488 -86.68397 2959 ft 219 kts 266°
2026-04-28 04:17 33.77412 -86.70210 2951 ft 213 kts 245°
2026-04-28 04:18 33.76589 -86.71591 2966 ft 201 kts 213°
2026-04-28 04:18 33.75427 -86.72504 2966 ft 199 kts 207°
2026-04-28 04:18 33.74252 -86.73323 2996 ft 199 kts 205°
2026-04-28 04:18 33.73059 -86.74158 2989 ft 201 kts 206°
2026-04-28 04:19 33.71783 -86.74710 2968 ft 192 kts 184°
2026-04-28 04:19 33.70447 -86.74707 2990 ft 190 kts 179°
2026-04-28 04:19 33.69133 -86.74710 2994 ft 193 kts 180°
2026-04-28 04:19 33.67755 -86.74721 2813 ft 194 kts 179°
2026-04-28 04:20 33.66399 -86.74706 2802 ft 195 kts 179°
2026-04-28 04:20 33.65043 -86.74721 2802 ft 192 kts 179°
2026-04-28 04:20 33.63777 -86.74705 2643 ft 166 kts 177°
2026-04-28 04:20 33.62637 -86.74729 1982 ft 157 kts 179°
2026-04-28 04:21 33.61692 -86.74731 1663 ft 122 kts 178°
2026-04-28 04:21 33.61068 -86.74731 1407 ft 115 kts 179°
2026-04-28 04:21 33.60492 -86.74723 1255 ft 102 kts 178°
2026-04-28 04:21 33.59927 -86.74744 1163 ft 96 kts 175°
2026-04-28 04:22 33.59210 -86.74707 1098 ft 122 kts 176°
2026-04-28 04:22 33.58352 -86.74720 1023 ft 114 kts 178°
2026-04-28 04:22 33.57594 -86.74729 767 ft 105 kts 177°
2026-04-28 04:22 33.56925 -86.74724 647 ft 86 kts 175°
2026-04-28 04:23 33.56397 -86.74718 640 ft 69 kts 180°
2026-04-28 04:23 33.55964 -86.74716 637 ft 55 kts 179°
2026-04-28 04:23 33.55753 -86.74755 642 ft 15 kts 256°
2026-04-28 04:23 33.55753 -86.74796 642 ft 0 kts 271°
2026-04-28 04:25 33.55766 -86.74834 641 ft 10 kts 314°
2026-04-28 04:25 33.55852 -86.74851 639 ft 16 kts 359°
2026-04-28 04:25 33.55985 -86.74852 635 ft 22 kts 358°
2026-04-28 04:26 33.56115 -86.74853 635 ft 10 kts
2026-04-28 04:26 33.56191 -86.74851 635 ft 12 kts
2026-04-28 04:26 33.56276 -86.74851 639 ft 14 kts 359°
2026-04-28 04:26 33.56382 -86.74850 635 ft 16 kts
2026-04-28 04:27 33.56495 -86.74851 641 ft 16 kts
2026-04-28 04:27 33.56535 -86.74850 638 ft 10 kts 359°
2026-04-28 04:27 33.56603 -86.74938 639 ft 20 kts 270°
2026-04-28 04:27 33.56548 -86.75098 641 ft 22 kts 236°
2026-04-28 04:28 33.56455 -86.75256 637 ft 24 kts 233°
2026-04-28 04:28 33.56359 -86.75424 641 ft 24 kts 238°
2026-04-28 04:28 33.56264 -86.75595 638 ft 25 kts 235°
2026-04-28 04:28 33.56162 -86.75770 636 ft 26 kts 236°
2026-04-28 04:29 33.56052 -86.75962 633 ft 29 kts 236°
2026-04-28 04:29 33.55932 -86.76169 626 ft 32 kts 236°
2026-04-28 04:29 33.55806 -86.76389 622 ft 32 kts 237°
2026-04-28 04:29 33.55677 -86.76610 620 ft 32 kts 236°
2026-04-28 04:30 33.55551 -86.76827 617 ft 28 kts 232°
2026-04-28 04:30 33.55507 -86.76903 618 ft 7 kts 236°
2026-04-28 04:30 33.55442 -86.77022 612 ft 9 kts 239°
2026-04-28 04:30 33.55430 -86.77051 619 ft 0 kts 250°
2026-04-28 04:31 33.55426 -86.77074 613 ft 13 kts 266°
2026-04-28 04:31 33.55520 -86.77174 609 ft 21 kts 326°
2026-04-28 04:31 33.55625 -86.77229 612 ft 12 kts 21°
2026-04-28 04:31 33.55672 -86.77206 614 ft 0 kts 346°
2026-04-28 04:32 33.55695 -86.77225 609 ft 11 kts 294°
2026-04-28 04:32 33.55664 -86.77301 604 ft 11 kts 261°
2026-04-28 04:32 33.55644 -86.77334 603 ft 0 kts 194°